This demonstration page uses our WeatherBlox Daily Observations layout. Learn more.

36.17497, -115.13722

Hourly Observations for March 10, 2018

Temp ( °F °C ) Dew Point ( °F °C ) Humidity (%) Winds ( mph kmh ) Pressure ( in mb ) Visibility ( mi km ) Precip ( " mm )
12:53 am 00:53 Clear 55 12.8 21 -6.1 26 26 NNW 7 11 29.87 1012 10 16.0934 0 0
1:53 am 01:53 Clear 54 12.2 22 -5.6 29 29 NNW 6 9 29.87 1012 10 16.0934 0 0
2:53 am 02:53 Clear 54 12.2 23 -5 30 30 NW 6 9 29.87 1012 10 16.0934 0 0
3:53 am 03:53 Clear 56 13.3 22 -5.6 27 27 NW 5 7 29.87 1011 10 16.0934 0 0
4:53 am 04:53 Clear 56 13.3 22 -5.6 27 27 N 6 9 29.88 1012 10 16.0934 0 0
5:53 am 05:53 Clear 57 13.9 20 -6.7 24 24 N 3 6 29.9 1013 10 16.0934 0 0
6:53 am 06:53 Partly Cloudy 58 14.4 20 -6.7 23 23 NNW 8 13 29.93 1013 10 16.0934 0 0
7:53 am 07:53 Mostly Sunny 61 16.1 18 -7.8 19 19 Calm 29.93 1014 10 16.0934 0 0
8:53 am 08:53 Partly Cloudy 63 17.2 20 -6.7 19 19 Calm 29.95 1014 10 16.0934 0 0
9:53 am 09:53 Partly Cloudy 64 17.8 23 -5 21 21 SSE 7 11 29.96 1014 10 16.0934 0 0
10:53 am 10:53 Cloudy 65 18.3 25 -3.9 22 22 E 6 9 29.97 1015 10 16.0934 0 0
11:53 am 11:53 Cloudy 65 18.3 37 2.8 36 36 Calm 29.97 1015 10 16.0934 0 0
12:53 pm 12:53 Cloudy 66 18.9 40 4.4 39 39 VRB 3 6 29.94 1014 10 16.0934 0 0
1:53 pm 13:53 Cloudy 64 17.8 43 6.1 46 46 SE 21 33 29.94 1014 10 16.0934 0 0
2:53 pm 14:53 Cloudy with Light Rain 62 16.7 47 8.3 58 58 S 9 15 29.96 1015 10 16.0934 0 0.0254
3:53 pm 15:53 Cloudy with Light Rain 60 15.6 49 9.4 67 67 SSE 3 6 29.96 1015 10 16.0934 0 0.0254
4:53 pm 16:53 Cloudy 61 16.1 49 9.4 65 65 SSE 6 9 29.96 1015 10 16.0934 0 0.0254
5:53 pm 17:53 Cloudy 59 15 50 10 72 72 E 8 13 29.97 1015 10 16.0934 0 0
6:53 pm 18:53 Cloudy 58 14.4 50 10 75 75 E 7 11 29.98 1015 10 16.0934 0 0
7:53 pm 19:53 Cloudy with Light Rain 58 14.4 51 10.6 78 78 SE 7 11 29.98 1015 10 16.0934 0 0.0254
8:53 pm 20:53 Cloudy with Light Rain 56 13.3 53 11.7 90 90 E 7 11 29.98 1015 10 16.0934 0.02 0.508
9:07 pm 21:07 Cloudy with Light Rain 55 12.8 53 11.7 93 93 E 7 11 29.97 1015 10 16.0934 0 0.0254
9:29 pm 21:29 Cloudy with Light Rain 55 12.8 53 11.7 93 93 E 8 13 29.97 1015 10 16.0934 0.01 0.254
9:53 pm 21:53 Cloudy with Light Rain 55 12.8 53 11.7 93 93 E 10 17 29.98 1015 10 16.0934 0.02 0.508
10:53 pm 22:53 Cloudy with Light Rain 55 12.8 53 11.7 93 93 ENE 7 11 29.99 1016 10 16.0934 0.02 0.508
11:30 pm 23:30 Cloudy with Light Rain 55 12.8 53 11.7 93 93 E 6 9 29.97 1015 7 11.26538 0.04 1.016
11:53 pm 23:53 Cloudy with Light Rain 54 12.2 53 11.7 97 97 E 6 9 30 1016 9 14.48406 0.06 1.524

Powered by AerisWeather